When you browse on this site, cookies collect data to enhance your experience and personalize the content and advertising you see.
Visit our Privacy Policy to learn more. By continuing to use the site, you agree to this use of cookies and data.
  • In United Kingdom
  • List of Countries
  • For 7 days
  • Water Temperature
  • Satellite Maps
  • Weather Map
  • Weather Widgets
  • user-avatar
    Login

    Hourly Weather Bukavu

    Today, 21 May, Tuesday

    Time Temperature Precipitation Wind Pressure Humidity
    00:00 +22°C° 0.1 mm 1 mps 689 mmHg 98%
    01:00 +22°C° 0.1 mm 1 mps 689 mmHg 99%
    02:00 +21°C° 0 mm 1 mps 689 mmHg 99%
    03:00 +21°C° 0 mm 1 mps 688 mmHg 99%
    04:00 +21°C° 0 mm 1 mps 688 mmHg 99%
    05:00 +21°C° 0 mm 1 mps 688 mmHg 99%
    06:00 +22°C° 0 mm 1 mps 689 mmHg 97%
    07:00 +22°C° 0 mm 1 mps 689 mmHg 95%
    08:00 +23°C° 0 mm 1 mps 690 mmHg 91%
    09:00 +26°C° 0 mm 1 mps 690 mmHg 75%
    10:00 +30°C° 0 mm 1 mps 690 mmHg 60%
    11:00 +33°C° 0 mm 1 mps 690 mmHg 44%
    12:00 +33°C° 0 mm 1 mps 690 mmHg 42%
    13:00 +32°C° 0 mm 0 mps 689 mmHg 40%
    14:00 +33°C° 0 mm 0 mps 688 mmHg 38%
    15:00 +31°C° 0 mm 0 mps 688 mmHg 44%
    16:00 +32°C° 0 mm 1 mps 687 mmHg 50%
    17:00 +30°C° 0 mm 1 mps 687 mmHg 57%
    18:00 +28°C° 0 mm 1 mps 687 mmHg 63%
    19:00 +26°C° 0 mm 1 mps 687 mmHg 69%
    20:00 +23°C° 0 mm 0 mps 687 mmHg 75%
    21:00 +22°C° 0 mm 0 mps 687 mmHg 76%
    22:00 +22°C° 0 mm 0 mps 688 mmHg 78%
    23:00 +21°C° 0 mm 0 mps 688 mmHg 79%

    Tomorrow, 22 May, Wednesday

    Time Temperature Precipitation Wind Pressure Humidity
    00:00 +21°C° 0.3 mm 0 mps 688 mmHg 84%
    01:00 +22°C° 0.3 mm 1 mps 688 mmHg 89%
    02:00 +22°C° 0.3 mm 1 mps 687 mmHg 94%
    03:00 +22°C° 0.1 mm 1 mps 687 mmHg 94%
    04:00 +22°C° 0.1 mm 1 mps 687 mmHg 95%
    05:00 +22°C° 0.1 mm 1 mps 687 mmHg 96%
    06:00 +23°C° 0 mm 1 mps 688 mmHg 92%
    07:00 +23°C° 0 mm 1 mps 689 mmHg 87%
    08:00 +24°C° 0 mm 1 mps 689 mmHg 83%
    09:00 +26°C° 0 mm 1 mps 689 mmHg 74%
    10:00 +28°C° 0 mm 1 mps 690 mmHg 65%
    11:00 +30°C° 0 mm 1 mps 690 mmHg 56%
    12:00 +31°C° 0 mm 1 mps 689 mmHg 54%
    13:00 +31°C° 0 mm 1 mps 689 mmHg 51%
    14:00 +32°C° 0 mm 1 mps 688 mmHg 48%
    15:00 +31°C° 0 mm 1 mps 688 mmHg 51%
    16:00 +31°C° 0 mm 1 mps 687 mmHg 54%
    17:00 +30°C° 0 mm 1 mps 687 mmHg 58%
    18:00 +28°C° 0.5 mm 1 mps 687 mmHg 69%
    19:00 +25°C° 0.5 mm 1 mps 687 mmHg 80%
    20:00 +23°C° 0.5 mm 1 mps 687 mmHg 92%
    21:00 +23°C° 1.6 mm 1 mps 688 mmHg 94%
    22:00 +22°C° 1.6 mm 1 mps 688 mmHg 96%
    23:00 +20°C° 1.6 mm 0 mps 689 mmHg 98%

    Day after tomorrow, 23 May, Thursday

    Time Temperature Precipitation Wind Pressure Humidity
    00:00 +22°C° 1.6 mm 1 mps 688 mmHg 98%
    01:00 +22°C° 1.6 mm 1 mps 688 mmHg 98%
    02:00 +22°C° 1.6 mm 1 mps 688 mmHg 99%
    03:00 +22°C° 0.5 mm 1 mps 687 mmHg 99%
    04:00 +21°C° 0.5 mm 1 mps 687 mmHg 99%
    05:00 +21°C° 0.5 mm 1 mps 687 mmHg 98%
    06:00 +22°C° 0 mm 1 mps 688 mmHg 97%
    07:00 +23°C° 0 mm 1 mps 688 mmHg 95%
    08:00 +24°C° 0 mm 1 mps 689 mmHg 94%
    09:00 +27°C° 0 mm 1 mps 689 mmHg 78%
    10:00 +30°C° 0 mm 1 mps 690 mmHg 62%
    11:00 +33°C° 0 mm 1 mps 690 mmHg 46%
    12:00 +33°C° 0 mm 1 mps 689 mmHg 43%
    13:00 +34°C° 0 mm 1 mps 688 mmHg 41%
    14:00 +34°C° 0 mm 1 mps 687 mmHg 39%
    15:00 +33°C° 0 mm 1 mps 687 mmHg 45%
    16:00 +30°C° 0 mm 0 mps 687 mmHg 52%
    17:00 +29°C° 0 mm 0 mps 686 mmHg 58%
    18:00 +27°C° 0.3 mm 0 mps 686 mmHg 66%
    19:00 +25°C° 0.3 mm 0 mps 687 mmHg 73%
    20:00 +25°C° 0.3 mm 1 mps 687 mmHg 81%
    21:00 +24°C° 1.5 mm 1 mps 687 mmHg 86%
    22:00 +24°C° 1.5 mm 1 mps 688 mmHg 91%
    23:00 +23°C° 1.5 mm 1 mps 688 mmHg 96%

    24 May, Friday

    Time Temperature Precipitation Wind Pressure Humidity
    00:00 +23°C° 0.1 mm 1 mps 688 mmHg 96%
    01:00 +23°C° 0.1 mm 1 mps 687 mmHg 96%
    02:00 +22°C° 0.1 mm 1 mps 687 mmHg 97%
    03:00 +22°C° 0.2 mm 1 mps 687 mmHg 97%
    04:00 +19°C° 0.2 mm 0 mps 687 mmHg 98%
    05:00 +19°C° 0.2 mm 0 mps 687 mmHg 98%
    06:00 +20°C° 0.7 mm 0 mps 688 mmHg 97%
    07:00 +21°C° 0.7 mm 0 mps 689 mmHg 95%
    08:00 +22°C° 0.7 mm 0 mps 689 mmHg 94%
    09:00 +25°C° 1 mm 1 mps 689 mmHg 93%
    10:00 +26°C° 1 mm 1 mps 689 mmHg 92%
    11:00 +28°C° 1 mm 1 mps 689 mmHg 90%
    12:00 +28°C° 1.3 mm 1 mps 688 mmHg 90%
    13:00 +28°C° 1.3 mm 1 mps 687 mmHg 90%
    14:00 +28°C° 1.3 mm 1 mps 687 mmHg 90%
    15:00 +27°C° 1.3 mm 1 mps 687 mmHg 91%
    16:00 +27°C° 1.3 mm 1 mps 687 mmHg 92%
    17:00 +26°C° 1.3 mm 1 mps 687 mmHg 93%
    18:00 +25°C° 0.1 mm 1 mps 687 mmHg 93%
    19:00 +24°C° 0.1 mm 1 mps 687 mmHg 93%
    20:00 +23°C° 0.1 mm 1 mps 688 mmHg 93%
    21:00 +22°C° 0.2 mm 1 mps 688 mmHg 94%
    22:00 +22°C° 0.2 mm 1 mps 688 mmHg 95%
    23:00 +22°C° 0.2 mm 1 mps 688 mmHg 96%

    25 May, Saturday

    Time Temperature Precipitation Wind Pressure Humidity
    00:00 +21°C° 0.1 mm 1 mps 688 mmHg 97%
    01:00 +21°C° 0.1 mm 1 mps 688 mmHg 97%
    02:00 +21°C° 0.1 mm 1 mps 688 mmHg 97%
    03:00 +21°C° 1 mm 1 mps 688 mmHg 98%
    04:00 +19°C° 1 mm 0 mps 688 mmHg 98%
    05:00 +19°C° 1 mm 0 mps 688 mmHg 99%
    06:00 +20°C° 0.3 mm 0 mps 688 mmHg 98%
    07:00 +20°C° 0.3 mm 0 mps 689 mmHg 97%
    08:00 +21°C° 0.3 mm 0 mps 690 mmHg 96%
    09:00 +26°C° 0 mm 1 mps 690 mmHg 80%
    10:00 +29°C° 0 mm 1 mps 690 mmHg 64%
    11:00 +32°C° 0 mm 1 mps 691 mmHg 49%
    12:00 +31°C° 0.7 mm 1 mps 689 mmHg 56%
    13:00 +30°C° 0.7 mm 1 mps 688 mmHg 64%
    14:00 +30°C° 0.7 mm 1 mps 687 mmHg 72%
    15:00 +29°C° 0.6 mm 1 mps 687 mmHg 75%
    16:00 +28°C° 0.6 mm 1 mps 687 mmHg 79%
    17:00 +27°C° 0.6 mm 1 mps 687 mmHg 82%
    18:00 +26°C° 0.1 mm 1 mps 687 mmHg 85%
    19:00 +25°C° 0.1 mm 1 mps 688 mmHg 88%
    20:00 +23°C° 0.1 mm 1 mps 688 mmHg 92%
    21:00 +23°C° 0.4 mm 1 mps 688 mmHg 94%
    22:00 +22°C° 0.4 mm 1 mps 688 mmHg 95%
    23:00 +20°C° 0.4 mm 0 mps 688 mmHg 97%

    26 May, Sunday

    Time Temperature Precipitation Wind Pressure Humidity
    00:00 +22°C° 1.4 mm 1 mps 688 mmHg 98%
    01:00 +22°C° 1.4 mm 1 mps 687 mmHg 98%
    02:00 +22°C° 1.4 mm 1 mps 687 mmHg 99%
    03:00 +21°C° 0.8 mm 1 mps 687 mmHg 99%
    04:00 +21°C° 0.8 mm 1 mps 687 mmHg 98%
    05:00 +21°C° 0.8 mm 1 mps 687 mmHg 98%
    06:00 +22°C° 0.2 mm 1 mps 688 mmHg 96%
    07:00 +22°C° 0.2 mm 1 mps 688 mmHg 94%
    08:00 +23°C° 0.2 mm 1 mps 689 mmHg 92%
    09:00 +26°C° 0 mm 1 mps 689 mmHg 77%
    10:00 +29°C° 0 mm 1 mps 689 mmHg 62%
    11:00 +31°C° 0 mm 1 mps 689 mmHg 48%
    12:00 +32°C° 0 mm 1 mps 689 mmHg 46%
    13:00 +32°C° 0 mm 1 mps 688 mmHg 45%
    14:00 +31°C° 0 mm 0 mps 687 mmHg 44%
    15:00 +31°C° 0.2 mm 1 mps 687 mmHg 55%
    16:00 +29°C° 0.2 mm 1 mps 686 mmHg 66%
    17:00 +26°C° 0.2 mm 1 mps 686 mmHg 77%
    18:00 +25°C° 3.3 mm 1 mps 686 mmHg 84%
    19:00 +24°C° 3.3 mm 1 mps 687 mmHg 90%
    20:00 +23°C° 3.3 mm 1 mps 687 mmHg 96%
    21:00 +23°C° 0.8 mm 1 mps 687 mmHg 97%
    22:00 +22°C° 0.8 mm 1 mps 687 mmHg 97%
    23:00 +20°C° 0.8 mm 0 mps 688 mmHg 97%
    Show more